Location: Maignaut
(43.8886°N, 0.4051°E)
Time: 01:57:32
(UTC+00:00)

Cosmos 468 Rocket - Pass Details

Date: 27 February 2020
Orbit: 744 x 780 km, 74.0° (Epoch: 03 April)

Event Time Altitude Azimuth Distance (km) Brightness Sun altitude
Rises 18:38:26 0° 189° (S) 3,230 7.4 -10.7°
Reaches altitude 10° 18:40:49 10° 186° (S) 2,312 6.6 -11.1°
Maximum altitude 18:46:00 63° 107° (ESE) 867 4.0 -12.0°
Drops below altitude 10° 18:51:15 10° 27° (NNE) 2,341 6.3 -13.0°
Sets 18:53:40 0° 24° (NNE) 3,274 7.0 -13.4°
